When you browse on this site, cookies collect data to enhance your experience and personalize the content and advertising you see.
Visit our Privacy Policy to learn more. By continuing to use the site, you agree to this use of cookies and data.
  • en France
  • Liste des pays
  • À 7 jours
  • Température de l'eau
  • Carte satellitaire
  • Carte météo
  • Widgets météo
  • user-avatar
    Se connecter

    Météo par heure à Marfinka

    Ce jour, 19 Février, Mardi

    Heure Température Précipitation Vent Pression Humidité
    00:00 -12°C° 0 mm 4 m/s 753 mmHg 88%
    01:00 -14°C° 0 mm 4 m/s 754 mmHg 89%
    02:00 -14°C° 0 mm 3 m/s 754 mmHg 91%
    03:00 -14°C° 0 mm 3 m/s 755 mmHg 92%
    04:00 -15°C° 0 mm 3 m/s 755 mmHg 93%
    05:00 -14°C° 0 mm 2 m/s 755 mmHg 93%
    06:00 -15°C° 0 mm 2 m/s 755 mmHg 93%
    07:00 -15°C° 0 mm 2 m/s 756 mmHg 93%
    08:00 -14°C° 0 mm 2 m/s 756 mmHg 92%
    09:00 -14°C° 0 mm 2 m/s 756 mmHg 92%
    10:00 -13°C° 0 mm 3 m/s 755 mmHg 90%
    11:00 -12°C° 0 mm 3 m/s 755 mmHg 88%
    12:00 -10°C° 0 mm 4 m/s 755 mmHg 86%
    13:00 -11°C° 0 mm 5 m/s 754 mmHg 85%
    14:00 -10°C° 0 mm 5 m/s 753 mmHg 85%
    15:00 -10°C° 0 mm 6 m/s 753 mmHg 84%
    16:00 -10°C° 0 mm 6 m/s 752 mmHg 84%
    17:00 -10°C° 0 mm 6 m/s 752 mmHg 85%
    18:00 -10°C° 0 mm 6 m/s 751 mmHg 86%
    19:00 -10°C° 0 mm 6 m/s 751 mmHg 86%
    20:00 -10°C° 0 mm 6 m/s 751 mmHg 86%
    21:00 -8°C° 0 mm 5 m/s 751 mmHg 87%
    22:00 -10°C° 0 mm 5 m/s 750 mmHg 87%
    23:00 -10°C° 0 mm 5 m/s 750 mmHg 87%

    Demain, 20 Février, Mercredi

    Heure Température Précipitation Vent Pression Humidité
    00:00 -10°C° 0 mm 5 m/s 749 mmHg 87%
    01:00 -10°C° 0 mm 5 m/s 749 mmHg 86%
    02:00 -10°C° 0 mm 5 m/s 749 mmHg 85%
    03:00 -10°C° 0 mm 5 m/s 748 mmHg 84%
    04:00 -10°C° 0 mm 6 m/s 748 mmHg 85%
    05:00 -10°C° 0 mm 6 m/s 747 mmHg 86%
    06:00 -10°C° 0 mm 6 m/s 746 mmHg 86%
    07:00 -10°C° 0 mm 6 m/s 746 mmHg 87%
    08:00 -9°C° 0 mm 6 m/s 746 mmHg 88%
    09:00 -9°C° 0 mm 6 m/s 745 mmHg 88%
    10:00 -8°C° 0 mm 6 m/s 745 mmHg 89%
    11:00 -6°C° 0 mm 6 m/s 745 mmHg 89%
    12:00 -4°C° 0 mm 6 m/s 745 mmHg 89%
    13:00 -4°C° 0.1 mm 6 m/s 744 mmHg 89%
    14:00 -4°C° 0.1 mm 6 m/s 744 mmHg 89%
    15:00 -3°C° 0.1 mm 6 m/s 744 mmHg 89%
    16:00 -3°C° 0.1 mm 6 m/s 743 mmHg 89%
    17:00 -3°C° 0.1 mm 6 m/s 743 mmHg 90%
    18:00 -3°C° 0.1 mm 6 m/s 743 mmHg 91%
    19:00 -2°C° 0.5 mm 5 m/s 743 mmHg 92%
    20:00 -2°C° 0.5 mm 5 m/s 742 mmHg 92%
    21:00 -2°C° 0.5 mm 5 m/s 742 mmHg 93%
    22:00 -2°C° 0.2 mm 5 m/s 742 mmHg 93%
    23:00 -1°C° 0.2 mm 4 m/s 742 mmHg 94%

    Après-demain, 21 Février, Jeudi

    Heure Température Précipitation Vent Pression Humidité
    00:00 -1°C° 0.2 mm 4 m/s 741 mmHg 94%
    01:00 -1°C° 0 mm 4 m/s 741 mmHg 94%
    02:00 -2°C° 0 mm 4 m/s 740 mmHg 93%
    03:00 -2°C° 0 mm 4 m/s 740 mmHg 93%
    04:00 -2°C° 0.1 mm 4 m/s 740 mmHg 93%
    05:00 -2°C° 0.1 mm 4 m/s 739 mmHg 94%
    06:00 -2°C° 0.1 mm 5 m/s 739 mmHg 94%
    07:00 -2°C° 0.1 mm 5 m/s 739 mmHg 93%
    08:00 -2°C° 0.1 mm 5 m/s 739 mmHg 93%
    09:00 -2°C° 0.1 mm 5 m/s 739 mmHg 92%
    10:00 -2°C° 0.3 mm 5 m/s 739 mmHg 94%
    11:00 -1°C° 0.3 mm 4 m/s 738 mmHg 96%
    12:00 -1°C° 0.3 mm 4 m/s 738 mmHg 98%
    13:00 -1°C° 0.1 mm 4 m/s 738 mmHg 96%
    14:00 -2°C° 0.1 mm 4 m/s 738 mmHg 93%
    15:00 -2°C° 0.1 mm 4 m/s 738 mmHg 91%
    16:00 -2°C° 0.1 mm 3 m/s 738 mmHg 92%
    17:00 -2°C° 0.1 mm 3 m/s 738 mmHg 92%
    18:00 -4°C° 0.1 mm 3 m/s 738 mmHg 92%
    19:00 -5°C° 0 mm 3 m/s 738 mmHg 93%
    20:00 -5°C° 0 mm 3 m/s 738 mmHg 94%
    21:00 -5°C° 0 mm 2 m/s 738 mmHg 96%
    22:00 -5°C° 0.1 mm 3 m/s 739 mmHg 95%
    23:00 -5°C° 0.1 mm 4 m/s 739 mmHg 95%

    22 Février, Vendredi

    Heure Température Précipitation Vent Pression Humidité
    00:00 -4°C° 0.1 mm 4 m/s 739 mmHg 94%
    01:00 -6°C° 0.3 mm 5 m/s 739 mmHg 93%
    02:00 -8°C° 0.3 mm 6 m/s 740 mmHg 91%
    03:00 -8°C° 0.3 mm 7 m/s 740 mmHg 90%
    04:00 -9°C° 0.2 mm 7 m/s 741 mmHg 89%
    05:00 -11°C° 0.2 mm 7 m/s 741 mmHg 89%
    06:00 -12°C° 0.2 mm 7 m/s 742 mmHg 88%
    07:00 -12°C° 0.2 mm 7 m/s 743 mmHg 87%
    08:00 -13°C° 0.2 mm 7 m/s 744 mmHg 87%
    09:00 -13°C° 0.2 mm 8 m/s 745 mmHg 86%
    10:00 -14°C° 0.1 mm 7 m/s 745 mmHg 85%
    11:00 -14°C° 0.1 mm 7 m/s 746 mmHg 84%
    12:00 -14°C° 0.1 mm 7 m/s 747 mmHg 82%
    13:00 -14°C° 0.1 mm 7 m/s 747 mmHg 82%
    14:00 -15°C° 0.1 mm 7 m/s 747 mmHg 81%
    15:00 -15°C° 0.1 mm 6 m/s 748 mmHg 81%
    16:00 -15°C° 0.1 mm 6 m/s 748 mmHg 83%
    17:00 -15°C° 0.1 mm 5 m/s 749 mmHg 84%
    18:00 -15°C° 0.1 mm 4 m/s 750 mmHg 86%
    19:00 -16°C° 0 mm 4 m/s 750 mmHg 88%
    20:00 -16°C° 0 mm 4 m/s 750 mmHg 89%
    21:00 -17°C° 0 mm 4 m/s 751 mmHg 91%
    22:00 -17°C° 0 mm 4 m/s 751 mmHg 91%
    23:00 -17°C° 0 mm 4 m/s 752 mmHg 91%

    23 Février, Samedi

    Heure Température Précipitation Vent Pression Humidité
    00:00 -17°C° 0 mm 4 m/s 752 mmHg 92%
    01:00 -17°C° 0 mm 4 m/s 753 mmHg 92%
    02:00 -16°C° 0 mm 3 m/s 753 mmHg 92%
    03:00 -15°C° 0 mm 3 m/s 754 mmHg 92%
    04:00 -16°C° 0 mm 4 m/s 754 mmHg 91%
    05:00 -16°C° 0 mm 4 m/s 755 mmHg 91%
    06:00 -16°C° 0 mm 4 m/s 755 mmHg 91%
    07:00 -17°C° 0 mm 4 m/s 755 mmHg 91%
    08:00 -17°C° 0 mm 4 m/s 756 mmHg 91%
    09:00 -17°C° 0 mm 4 m/s 756 mmHg 91%
    10:00 -16°C° 0 mm 4 m/s 757 mmHg 89%
    11:00 -16°C° 0 mm 4 m/s 757 mmHg 88%
    12:00 -14°C° 0 mm 3 m/s 757 mmHg 86%
    13:00 -15°C° 0 mm 4 m/s 757 mmHg 86%
    14:00 -15°C° 0 mm 4 m/s 758 mmHg 86%
    15:00 -14°C° 0 mm 4 m/s 758 mmHg 86%
    16:00 -14°C° 0 mm 3 m/s 758 mmHg 88%
    17:00 -14°C° 0 mm 3 m/s 758 mmHg 90%
    18:00 -13°C° 0 mm 2 m/s 759 mmHg 92%
    19:00 -14°C° 0 mm 2 m/s 759 mmHg 93%
    20:00 -14°C° 0 mm 2 m/s 760 mmHg 93%
    21:00 -15°C° 0 mm 2 m/s 760 mmHg 94%
    22:00 -16°C° 0 mm 2 m/s 760 mmHg 95%
    23:00 -16°C° 0 mm 2 m/s 761 mmHg 95%

    24 Février, Dimanche

    Heure Température Précipitation Vent Pression Humidité
    00:00 -17°C° 0 mm 2 m/s 761 mmHg 96%
    01:00 -16°C° 0 mm 2 m/s 762 mmHg 96%
    02:00 -16°C° 0 mm 2 m/s 762 mmHg 96%
    03:00 -16°C° 0 mm 2 m/s 762 mmHg 96%
    04:00 -16°C° 0 mm 2 m/s 763 mmHg 96%
    05:00 -17°C° 0 mm 2 m/s 763 mmHg 96%
    06:00 -17°C° 0 mm 2 m/s 763 mmHg 97%
    07:00 -17°C° 0 mm 2 m/s 764 mmHg 96%
    08:00 -17°C° 0 mm 2 m/s 764 mmHg 95%
    09:00 -16°C° 0 mm 2 m/s 764 mmHg 95%
    10:00 -15°C° 0 mm 2 m/s 765 mmHg 93%
    11:00 -14°C° 0 mm 2 m/s 765 mmHg 91%
    12:00 -13°C° 0 mm 2 m/s 765 mmHg 90%
    13:00 -13°C° 0 mm 2 m/s 765 mmHg 89%
    14:00 -12°C° 0 mm 2 m/s 765 mmHg 88%
    15:00 -10°C° 0 mm 2 m/s 765 mmHg 88%
    16:00 -13°C° 0 mm 2 m/s 764 mmHg 90%
    17:00 -12°C° 0 mm 1 m/s 764 mmHg 91%
    18:00 -13°C° 0 mm 0 m/s 764 mmHg 93%
    19:00 -14°C° 0 mm 0 m/s 764 mmHg 93%
    20:00 -14°C° 0 mm 0 m/s 763 mmHg 93%
    21:00 -15°C° 0 mm 0 m/s 763 mmHg 93%
    22:00 -15°C° 0 mm 1 m/s 763 mmHg 94%
    23:00 -15°C° 0 mm 1 m/s 762 mmHg 94%
    Voir plus